Погода Баку

Погода Баку : погода сейчас, прогноз погоды и архив. Всё, что Вы хотите узнать о погоде Баку!

Поиск расширенной информации на нашем сайте:

Другие новости

Новости СМИ2

Главная страница сайта

Новости сайта

03.07.2017

Напоминаем, что на нашем специализированном сайте Метеоцентр.Азия вы можете получить высокодетализированные автоматические прогнозы погоды по пунктам России, СНГ и мира в авиационном формате (включающие направление и скорость ветра, видимость, явления погоды, количество и форму облачности, нижнюю и верхнюю границу облачности).


Погода Баку - сегодня

Время (UTC), дата Ветер
(°,м/с) 
Видим.   Явления Облачность Т
(°С)
Тd
(°С)
f(%) Тe
(°С)
Pmin
(гПа)
dP
(гПа)
Po
(мм)
O2
(г/м3)
Тmin Tmax R s Состояние
почвы
12 13.08.18 360 (С) 20000 м    9/4 600 м средняя 
[Cu med, cong|Ac trans]
+26.6 +17.4 57 +39  1012.5  -1.6  755  274           
15 13.08.18 350 (С) 10  20000 м    9/4 600 м средняя 
[Cu med, cong|Ac trans]
+24.4 +16.6 62 +36  1013.8  1.3  756  276           
18 13.08.18 350 (С) 11  20000 м    8/8 600 м 
[Cu med, cong]
+23.8 +16.9 65 +36  1014.5  0.7  757  277    +27.1       
21 13.08.18 360 (С) 11  20000 м    8/8 600 м 
[Cu med, cong]
+23.4 +16.9 67 +35  1015.6  1.1  758  277           
00 14.08.18 360 (С) 11  20000 м    8/4 600 м 
[Cu med, cong]
+23.6 +18.7 74 +39  1015.2  -0.4  757  277           
03 14.08.18 360 (С) 10  20000 м    8/4 600 м средняя 
[Cu med, cong|Ac trans]
+23.8 +12.7 50 +29  1015.9  0.7  758  278           
09 14.08.18 350 (С) 20000 м    9/0 средняя 
[Ac cuf]
+27 +16.4 52 +38  1015.3  0.3  758  274           
12 14.08.18 360 (С) 20000 м    9/3 600 м кучево-дожд., средняя 
[Cb cap|Ac cast]
+27 +15.8 50 +37  1015.1  -0.2  757  274           
15 14.08.18 360 (С) 20000 м    9/3 600 м кучево-дожд., средняя 
[Cb cap|Ac cast]
+26 +15.5 52 +35  1015.1  757  275           
18 14.08.18 340 (С) 20000 м    8/8 600 м кучево-дожд. 
[Cb cap]
+25 +16.8 60 +37  1015.9  0.7  758  276    +28.1       
21 14.08.18 340 (С) 20000 м    8/8 600 м кучево-дожд. 
[Cb cap]
+24.5 +14.8 55 +33  1015.9  758  277           
00 15.08.18 340 (С) 20000 м  слаб. ливневой дождь  10/10 600 м 
+23.7 +14.6 57 +31  1014.6  -1.3  757  278           
06 15.08.18 360 (С) 20000 м  слаб. ливневой дождь, в посл. час гроза  10/9 600 м кучево-дожд., средняя 
[Cb cap|Ac cuf]
+24.4 +16.9 63 +36  1016.6  0.3  758  277  +23.1    0.0     
09 15.08.18 360 (С) 20000 м    10/9 600 м кучево-дожд., средняя 
[Cb cap|Ac cuf]
+27.9 +17.8 54 +41  1017.1  0.7  759  273           
12 15.08.18 360 (С) 20000 м    9/5 600 м средняя 
[Cu med, cong|Ac inh]
+26.9 +15.2 49 +36  1015.5  -1.7  758  275           
15 15.08.18 360 (С) 20000 м    9/5 600 м 
[Cu med, cong]
+24.6 +16.4 60 +35  1015.5  758  277           
21 15.08.18 020 (С) 20000 м    8/8 600 м 
[Sc]
+23.2 +16.4 66 +34  1016.7  0.7  758  278           
00 16.08.18 340 (С) 20000 м    8/8 600 м 
[Sc]
+22.6 +16.9 70 +34  1016.2  -0.6  758  278           
03 16.08.18 310 (СЗ) 20000 м    6/0 средняя 
[Ac trans]
+21.6 +16.1 71 +32  1016.2  758  280           
06 16.08.18 310 (СЗ) 20000 м    ясно 
+27 +17.1 55 +39  1016.7  0.7  758  274  +21.3         
09 16.08.18 360 (С) 20000 м    ясно 
+29.7 +14.6 40 +37  1015.8  -0.8  758  273           
12 16.08.18 360 (С) 20000 м    ясно 
+31 +15.6 39 +40  1014.6  -1.2  757  271           
15 16.08.18 030 (СВ) 20000 м    ясно 
+28 +14.6 44 +36  1014.9  0.2  757  274           
18 16.08.18 350 (С) 20000 м    ясно 
+23.9 +17.7 68 +37  1015.4  0.4  758  277    +32.1       
21 16.08.18 330 (СЗ) 20000 м    ясно 
+23 +17.4 71 +36  1014.6  -0.8  757  277           
Время (UTC), дата Ветер
(°,м/с) 
Видим.   Явления Облачность Т
(°С)
Тd
(°С)
f(%) Тe
(°С)
Pmin
(гПа)
dP
(гПа)
Po
(мм)
O2
(г/м3)
Тmin Tmax R s Состояние
почвы

Для получения пояснительной информации подведите курсор к названию столбца.

ПОГОДА Баку - архив

Всё, что Вы хотите узнать о погоде Баку - удобно и подробно!

Выберите нужную дату (начиная с 1 января 2015* года) и нажмите кнопку "Найти".
Будут отображены архивные сводки погоды по пункту Баку, начиная с указанной даты.


Отображать данные в формате CSV (для использования в таблицах Excel)


Внимание! Наш архив погоды предназначен исключительно для личного некоммерческого использования в познавательных целях. Если Вам необходимы официальные справки о состоянии погоды (для производственных, юридических, коммерческих и т.п. целей), обращайтесь в органы Росгидромета.

*Примечание: данная дата относится к архиву по метеостанциям СССР (Россия, СНГ, Балтия).
Архив по метеостанциям Зарубежной Европы и Азии (кроме Китая) хранится 10 дней, по другим регионам земного шара (Китай, Африка, Америка, Австралия, Океания) - 1 день.

Баку - район местоположения метеостанции


Название, широта, долгота, высота метеостанции:
Баку (Дендропарк) 40.4°ш. 49.8°д. 61 м над ур. моря [Азербайджан]

Дополнительная информация

В oтличие oт бoльшинства пoгoдных сайтoв мы публикуем пoдрoбную метеoинфoрмацию в детальнoм прoфессиoнальнoм фoрмате.

Характеристики температуры и влажнoсти вoздуха измеряются на высoте 2 м в тени вдали oт зданий и деревьев.
Скoрoсть ветра измеряется на высoте 10 м (на урoвне рoста челoвека скoрoсть ветра ниже в 1.5-2 раза). Если метеoстанция нахoдится в гoрoде или в лесу, тo скoрoсть ветра занижена на 2-4 м/с пo сравнению с oткрытым местoм. Скoрoсть ветра над акватoриями крупных рек и oзёр, а также на вершинах хoлмoв на 2-5 м/с выше, чем в oбычных услoвиях.
Атмoсфернoе давление в разных тoчках местнoсти мoжет значительнo oтличаться oт давления на метеoстанции, в зависимoсти oт услoвий рельефа (при пoдъёме на 10 м давление пoнижается примернo на 1 мм рт.ст.).